Location: Chervonnoye
(48.6000°N, 34.4000°E)
Time: 20:53:08
(UTC+00:00)

Cosmos 836 Rocket - Pass Details

Date: 23 November 2020
Orbit: 758 x 777 km, 74.1° (Epoch: 27 January)

Event Time Altitude Azimuth Distance (km) Brightness Sun altitude
Rises 15:33:28 0° 193° (SSW) 3,232 8.1 -16.0°
Reaches altitude 10° 15:35:51 10° 191° (S) 2,312 7.3 -16.4°
Maximum altitude 15:41:03 68° 109° (ESE) 834 4.4 -17.2°
Enters shadow 15:45:08 17° 29° (NNE) 1,885 6.2 -17.9°
